Regional Weather Roundup
Issued by NWS Upton, NY

Current Version | Previous Version | Text Only | Print | Product List | Glossary On
Versions: 1 2 3 4 5 6 7 8 9 10 11 12 13 14 15 16 17 18 19 20 21 22 23 24 25 26 27
000
ASUS41 KOKX 221707
RWROKX

REGIONAL WEATHER ROUNDUP
NATIONAL WEATHER SERVICE NEW YORK NY
100 PM EDT WED MAR 22 2017

NOTE: "FAIR" INDICATES FEW OR NO CLOUDS BELOW 12,000 FEET WITH NO
SIGNIFICANT WEATHER AND/OR OBSTRUCTIONS TO VISIBILITY.

NYZ071-072-176-178-NJZ106-104-221800-
NEW YORK CITY METRO AREA

CITY           SKY/WX    TMP DP  RH WIND       PRES   REMARKS
Central Park   SUNNY     34   2  25 N13G30    30.20R WCI  25
Wall St Helipt SUNNY     38   5  25 W9        30.19R WCI  31
LaGuardia APRT MOSUNNY   35   4  27 NW29G44   30.17R WCI  22
Kennedy INTL   MOSUNNY   36   1  22 NW31G41   30.17R WCI  23
Breezy Point     N/A     32 N/A N/A NW17G29     N/A  WCI  21
Newark/Liberty MOSUNNY   36   3  25 NW25G36   30.20R WCI  24
Teterboro      SUNNY     33   5  30 N22G40    30.19R WCI  21
$$

NYZ177-179-078>081-221800-
LONG ISLAND NEW YORK

CITY           SKY/WX    TMP DP  RH WIND       PRES   REMARKS
Jones Beach      N/A     32 N/A N/A NW36G46     N/A  WCI  16
Matinecock PT  NOT AVBL
Farmingdale    SUNNY     33  -5  19 N24G44    30.13R WCI  20
MacArthur/ISP  MOSUNNY   36   4  26 NW29G41   30.09R WCI  23
Shirley        MOSUNNY   35   6  29 N25G38    30.09R WCI  23
Westhampton    SUNNY     36   3  25 NW28G54   30.08R WCI  23
East Hampton     N/A     33  -3  21 NW24G38   30.06R WCI  20
Montauk        NOT AVBL
$$

NYZ052-065-067-221800-
HUDSON VALLEY

CITY           SKY/WX    TMP DP  RH WIND       PRES   REMARKS
White Plains   SUNNY     31  -1  25 NW28G39   30.12R WCI  17
Newburgh       SUNNY     27   1  33 NW23G35   30.18R WCI  12
Montgomery     SUNNY     28  -4  25 N24G35    30.19R WCI  14
Poughkeepsie   SUNNY     27  -3  27 NW16G33   30.18R WCI  15
Albany         MOSUNNY   25  -2  31 NW25G32   30.22R WCI   9
$$

NJZ001-105-106-008-010-013-015-019>022-104-221800-
NEW JERSEY

CITY           SKY/WX    TMP DP  RH WIND       PRES   REMARKS
Newark/Liberty MOSUNNY   36   3  25 NW25G36   30.20R WCI  24
Teterboro      SUNNY     33   5  30 N22G40    30.19R WCI  21
Caldwell       SUNNY     33   4  29 NW15G25   30.20R WCI  23
Somerville     SUNNY     34   7  32 NW20G32   30.21R WCI  23
Linden           N/A     35   5  29 N23G36    30.21R WCI  23
Sussex         SUNNY     28   2  32 NW13G30   30.22R WCI  17
Andover          N/A     28   2  32 N9G29     30.21R WCI  19
Trenton        SUNNY     34   6  31 N30G45    30.21R WCI  20
Millville      SUNNY     43  10  26 NW21G35   30.18R
Atlantic City  SUNNY     44   9  23 N24G37    30.16R
Wrightstown    SUNNY     38   8  28 NW33      30.16R WCI  26
Toms River     NOT AVBL
Belmar         MOSUNNY  N/A N/A N/A NW22G39   30.17R
$$

PAZ047>061-062-071-221800-
EASTERN PENNSYLVANIA

CITY           SKY/WX    TMP DP  RH WIND       PRES   REMARKS
Philadelphia   MOSUNNY   41   7  24 N24G31    30.22R
Allentown      SUNNY     34   6  31 N26G38    30.24R WCI  21
Scranton       PTSUNNY   25   6  44 NW23G32   30.27R WCI  10
$$

CTZ002-004>006-009-010-012-RIZ004-006-007-MAZ004-011-015-221800-
SOUTHERN NEW ENGLAND
 IN CT

CITY           SKY/WX    TMP DP  RH WIND       PRES   REMARKS
Bradley INTL   MOSUNNY   29   5  36 NW22G35   30.08R WCI  15
Hartford       SUNNY     29   4  34 NW22G35   30.10R WCI  15
Danbury        SUNNY     28  -3  26 NW22G33   30.12R WCI  14
Wtrbury/Oxford SUNNY     27  -2  28 NW17G32   30.09R WCI  14
Bridgeport     SUNNY     35  -3  19 NW31G44   30.10R WCI  22
Meriden        SUNNY     30  -1  26 NW20G32   30.12R WCI  17
New Haven      SUNNY     31  -4  22 NW30G39   30.12R WCI  16
Chester          N/A     32  -4  21 NW20G30   30.04R WCI  20
Groton         SUNNY     36   1  22 NW21G47   30.01R WCI  25
Wilimantic     SUNNY     33   4  29 NW17G31   30.04R WCI  22

 IN RI

CITY           SKY/WX    TMP DP  RH WIND       PRES   REMARKS
Providence     MOSUNNY   37   4  25 NW22G32   29.97R WCI  26
Block Island   SUNNY     36  10  34 NW22G33   29.99R WCI  25
Westerly       SUNNY     36   4  26 NW16G31   30.01R WCI  26
 IN MA

CITY           SKY/WX    TMP DP  RH WIND       PRES   REMARKS
Boston         MOSUNNY   32   8  36 NW22G33   29.97R WCI  19
Worcester      SUNNY     25  -2  31 NW30G41   29.96R WCI   8
Westfield      SUNNY     27   3  35 NW26G39   30.07R WCI  12
Provincetown   SUNNY     34  16  47 NW29G37   29.92R WCI  20
Nantucket      CLOUDY    41  21  44 NW23G30   29.88R
$$

ANZ330-335-338-340-345-350-353-355-221800-
COASTAL MARINE OBSERVATIONS


STATION/POSITION TIME  SKY/WX   TEMP    WIND        PRES    VSBY  WAVE
                                AIR SEA DIR/SP/G                  HT/PER
                 (UTC)          (F)     (DEG/KT/KT) (MB)    (MI)  (FT/S)
NY HARB ENTRANCE 1550            34 42  310/ 29/ 39 1019.2          5/ 5
20 S FIRE ISLAND 1650            34 41  320/ 29/ 35 1018.8          8/ 6
GREAT SOUTH BAY  NOT AVBL
23 SSW MONTAUK P 1650            33 42              1016.5          8/ 6
15 E BARNEGAT LI 1630               43                N/A           7/ 6
HUDSON CANYON    1550            38 45  320/ 25/ 33 1017.5         10/ 7
KINGS POINT      1648            30 38              1021.5
EXECUTION ROCKS  NOT AVBL
CENTRAL LI SOUND 1630            31     310/ 27/ 35   N/A           6/ 5
EASTERN LI SOUND NOT AVBL
ROBBINS REEF     1648            31     340/ 18/ 23 1022.4
$$


>>>>>>>>>>>>>>>>>>>>>>>>>>>> KEY <<<<<<<<<<<<<<<<<<<<<<<<<<<
>                                                          <
>     SKY/WX - Sky Condition/Present Weather               <
>     TMP    - Temperature in Fahrenheit                   <
>     DP     - Dew Point in Fahrenheit                     <
>     RH     - Relative Humidity in Percent                <
>     WIND   - Direction (from) and Speed in MPH           <
>     PRES   - Mean Sea Level Pressure (inches of Hg)      <
>     WCI    - Wind Chill Index                            <
>     VSB    - VISIBILITY IN MILES                         <
>     HX     - HEAT INDEX                                  <
>     TC     - TEMPERATURE IN CELSIUS                      <
>     VRB    - VARIABLE WIND DIRECTION                     <
>                                                          <
>>>>>>>>>>>>>>>>>>>>>>>>>>>> KEY <<<<<<<<<<<<<<<<<<<<<<<<<<<




USA.gov is the U.S. government's official web portal to all federal, state and local government web resources and services.